2015-12-08 16:42:05 r, 08.82m,0000024967Hz,0000000000c,0000000.000s, 004.1C,00002191
2015-12-08 16:52:05 r, 10.52m,0000005216Hz,0000000000c,0000000.000s, 007.7C,00002191
2015-12-08 17:02:05 r, 12.30m,0000001019Hz,0000000000c,0000000.000s, 009.9C,00002191
2015-12-08 17:12:05 r, 14.27m,0000000165Hz,0000000000c,0000000.000s, 010.9C,00002191
2015-12-08 17:22:05 r, 16.25m,0000000027Hz,0000017309c,0000000.038s, 011.6C,00002191
2015-12-08 17:32:06 r, 17.56m,0000000008Hz,0000058135c,0000000.126s, 011.9C,00002191
2015-12-08 17:42:05 r, 18.96m,0000000002Hz,0000209304c,0000000.454s, 011.9C,00002191
2015-12-08 17:52:05 r, 19.82m,0000000001Hz,0000460779c,0000001.000s, 011.9C,00002191
2015-12-08 18:02:07 r, 20.36m,0000000001Hz,0000751092c,0000001.630s, 011.6C,00002191
2015-12-08 18:12:05 r, 20.43m,0000000001Hz,0000802546c,0000001.742s, 011.2C,00002191
2015-12-08 18:22:05 r, 20.10m,0000000001Hz,0000602054c,0000001.307s, 011.2C,00002191
2015-12-08 18:32:05 r, 20.44m,0000000000Hz,0000808434c,0000001.754s, 010.9C,00002191
2015-12-08 18:42:05 r, 20.46m,0000000000Hz,0000823458c,0000001.787s, 010.6C,00002191
2015-12-08 18:52:05 r, 20.52m,0000000001Hz,0000874673c,0000001.898s, 010.6C,00002191
2015-12-08 19:02:05 r, 20.52m,0000000001Hz,0000874662c,0000001.898s, 010.3C,00002191
2015-12-08 19:12:05 r, 20.54m,0000000001Hz,0000887150c,0000001.925s, 009.9C,00002191
2015-12-08 19:22:05 r, 20.53m,0000000001Hz,0000882484c,0000001.915s, 009.9C,00002191
2015-12-08 19:32:05 r, 20.52m,0000000000Hz,0000871848c,0000001.892s, 009.6C,00002191
2015-12-08 19:42:05 r, 20.52m,0000000000Hz,0000873293c,0000001.895s, 009.6C,00002191
2015-12-08 19:52:05 r, 20.54m,0000000001Hz,0000885339c,0000001.921s, 009.6C,00002191
2015-12-08 20:02:06 r, 20.55m,0000000001Hz,0000893787c,0000001.940s, 009.3C,00002191
2015-12-08 20:12:05 r, 20.56m,0000000000Hz,0000904574c,0000001.963s, 009.3C,00002191
2015-12-08 20:22:05 r, 20.57m,0000000000Hz,0000912305c,0000001.980s, 009.3C,00002191
2015-12-08 20:32:06 r, 20.57m,0000000001Hz,0000914038c,0000001.984s, 009.0C,00002191
2015-12-08 20:42:05 r, 20.57m,0000000001Hz,0000912139c,0000001.979s, 009.0C,00002191
2015-12-08 20:52:05 r, 20.57m,0000000000Hz,0000909951c,0000001.975s, 009.0C,00002191
2015-12-08 21:02:05 r, 20.57m,0000000000Hz,0000917188c,0000001.990s, 008.7C,00002191
2015-12-08 21:12:05 r, 20.58m,0000000000Hz,0000931298c,0000002.021s, 008.7C,00002191
2015-12-08 21:22:05 r, 20.59m,0000000001Hz,0000934113c,0000002.027s, 008.7C,00002191
2015-12-08 21:32:05 r, 20.59m,0000000001Hz,0000936238c,0000002.032s, 008.7C,00002191
2015-12-08 21:42:05 r, 20.60m,0000000001Hz,0000942956c,0000002.046s, 008.7C,00002191
2015-12-08 21:52:05 r, 20.60m,0000000000Hz,0000945462c,0000002.052s, 008.7C,00002191
2015-12-08 22:02:05 r, 20.61m,0000000001Hz,0000951520c,0000002.065s, 008.3C,00002191
2015-12-08 22:12:05 r, 20.63m,0000000001Hz,0000973245c,0000002.112s, 008.3C,00002191
2015-12-08 22:22:05 r, 20.62m,0000000001Hz,0000964674c,0000002.093s, 008.3C,00002191
2015-12-08 22:32:05 r, 20.60m,0000000001Hz,0000938705c,0000002.037s, 008.3C,00002191
2015-12-08 22:42:05 r, 20.55m,0000000000Hz,0000902644c,0000001.959s, 008.3C,00002191
2015-12-08 22:52:05 r, 20.53m,0000000000Hz,0000889758c,0000001.931s, 008.0C,00002191
2015-12-08 23:02:07 r, 20.47m,0000000000Hz,0000841803c,0000001.827s, 008.0C,00002191
2015-12-08 23:12:05 r, 20.48m,0000000000Hz,0000847083c,0000001.838s, 008.0C,00002191
2015-12-08 23:22:05 r, 20.44m,0000000001Hz,0000816243c,0000001.771s, 007.7C,00002191
2015-12-08 23:32:05 r, 20.47m,0000000000Hz,0000839116c,0000001.821s, 007.7C,00002191
2015-12-08 23:42:05 r, 20.43m,0000000000Hz,0000804703c,0000001.746s, 007.7C,00002191
2015-12-08 23:52:05 r, 20.13m,0000000001Hz,0000616441c,0000001.338s, 007.4C,00002191
